Notices

What's New in latest Release from April 7th, 2021:

- Updated Glossary, including Speed of Maximum Gust, and Total Hourly Precipitation

- Updated national and regional climate services offices contacts and prices information

- Addition of station inventory lists for 1981-2010, 1971-2000, and 1961-1990 Normals.

If you haven't already, please take our survey and provide feedback about our website: https://eccc.sondage-survey.ca/f/LanguageSelection.aspx?s=442ca660-fcf1-47c0-95a9-59707d6fd709

Hourly Data Report for March 01, 2021

CARBERRY CS
MANITOBA
Current Station Operator: ECCC - MSC

49°54'20.900" N
99°21'26.800" W
383.50 m
5010547
71170
WZE

Download Data

Hourly Data (March 2021)
Hourly Data Report for March 1, 2021
TIME
LST
Temp Definition
°C
Dew Point Definition
°C
Rel Hum Definition
%
Precip. Amount Definition
mm

Wind Dir Definition
10's deg

Wind Spd Definition
km/h
Visibility Definition
km
Stn Press Definition
kPa
Hmdx Definition


Wind Chill Definition


Weather Definition


00:00 -24.3 -29.3 63 0.0 3 5   97.88   -29 LegendNANA
01:00 -23.2 -30.0 53 0.0 4 11   97.91   -31 LegendNANA
02:00 -24.0 -30.3 56 0.0 2 5   98.00   -29 LegendNANA
03:00 -27.0 -31.4 66 0.0   0   98.01     LegendNANA
04:00 -28.9 -32.5 71 0.0 26 9   98.15   -37 LegendNANA
05:00 -28.8 -32.0 74 0.0   0   98.13     LegendNANA
06:00 -29.5 -32.6 74 0.0 17 4   98.10   -34 LegendNANA
07:00 -29.9 -32.9 75 0.0 21 5   98.09   -36 LegendNANA
08:00 -28.8 -32.4 71 0.0 16 7   98.03   -36 LegendNANA
09:00 -23.1 -28.2 63 0.0 19 12   98.06   -32 LegendNANA
10:00 -19.7 -25.9 58 0.0 17 20   97.92   -30 LegendNANA
11:00 -17.1 -24.6 52 0.0 17 19   97.83   -27 LegendNANA
12:00 -14.6 -21.6 55 0.0 17 24   97.66   -24 LegendNANA
13:00 -13.4 -19.1 62 0.0 16 25   97.53   -23 LegendNANA
14:00 -11.4 -16.4 66 0.0 17 24   97.31   -20 LegendNANA
15:00 -10.7 -15.6 67 0.0 17 27   97.08   -20 LegendNANA
16:00 -9.6 -14.2 69 0.0 18 33   97.01   -19 LegendNANA
17:00 -9.5 -13.0 75 0.0 17 25   96.87   -18 LegendNANA
18:00 -9.5 -12.6 78 0.0 17 21   96.66   -17 LegendNANA
19:00 -8.9 -11.7 80 0.0 17 18   96.50   -16 LegendNANA
20:00 -7.7 -10.7 79 0.0 18 23   96.35   -15 LegendNANA
21:00 -6.9 -9.8 80 0.0 18 22   96.17   -14 LegendNANA
22:00 -5.8 -8.8 79 0.0 19 19   95.98   -12 LegendNANA
23:00 -5.2 -8.1 80 0.0 19 15   95.82   -11 LegendNANA

Notes on Data Quality.

Legend

  • E = Estimated
  • M = Missing
  • NA = Not Available*
  • [empty] = Indicates an unobserved value
Date modified: